View from above orbital plane
|
View from above satellite
|
Ground track
|
The orbit data is extracted from the following two-line orbital elements,
1 13067U 82013A 21110.57577174 .00001438 00000-0 63127-4 0 9998
2 13067 81.1835 295.6995 0004172 116.5013 243.6647 15.21305113140741
Epoch (UTC): | 20 April 2021 13:49:06 |
Eccentricity: | 0.0004172 |
inclination: | 81.1835° |
perigee height: | 499 km |
apogee height: | 505 km |
right ascension of ascending node: | 295.6995° |
argument of perigee: | 116.5013° |
revolutions per day: | 15.21305113 |
mean anomaly at epoch: | 243.6647° |
orbit number at epoch: | 14074 |
The dashed part of the orbit path shows where the satellite is in the earth's shadow,
|
|